• In Deutschland
  • Länderverzeichnis
  • Für 7 Tage
  • Wassertemperatur
  • Satellitenkarten
  • Wetterkarte
  • Widgets
  • user-avatar
    Anmelden

    Stündliche Wetter Wlora

    Heute, 22 Februar, Donnerstag

    Zeit Temperatur Niederschläge Wind Luftdruck Luftfeuchtigkeit
    00:00 +9°C° 0,7 mm 7 m/S 752 mmHg 87%
    01:00 +9°C° 0,7 mm 7 m/S 752 mmHg 87%
    02:00 +8°C° 0,3 mm 6 m/S 753 mmHg 87%
    03:00 +8°C° 0,3 mm 6 m/S 753 mmHg 87%
    04:00 +8°C° 0,3 mm 5 m/S 753 mmHg 87%
    05:00 +8°C° 0,1 mm 5 m/S 753 mmHg 86%
    06:00 +8°C° 0,1 mm 5 m/S 753 mmHg 86%
    07:00 +8°C° 0,1 mm 5 m/S 754 mmHg 85%
    08:00 +10°C° 0 mm 5 m/S 754 mmHg 79%
    09:00 +11°C° 0 mm 6 m/S 754 mmHg 74%
    10:00 +14°C° 0 mm 6 m/S 754 mmHg 68%
    11:00 +14°C° 0 mm 6 m/S 754 mmHg 65%
    12:00 +15°C° 0 mm 7 m/S 754 mmHg 62%
    13:00 +16°C° 0 mm 7 m/S 754 mmHg 59%
    14:00 +15°C° 0,1 mm 7 m/S 754 mmHg 61%
    15:00 +15°C° 0,1 mm 7 m/S 754 mmHg 63%
    16:00 +15°C° 0,1 mm 7 m/S 754 mmHg 66%
    17:00 +14°C° 0 mm 7 m/S 755 mmHg 71%
    18:00 +11°C° 0 mm 6 m/S 755 mmHg 76%
    19:00 +10°C° 0 mm 6 m/S 755 mmHg 82%
    20:00 +10°C° 0 mm 6 m/S 755 mmHg 82%
    21:00 +10°C° 0 mm 6 m/S 756 mmHg 82%
    22:00 +9°C° 0 mm 6 m/S 756 mmHg 83%
    23:00 +9°C° 0 mm 6 m/S 756 mmHg 82%

    Morgen, 23 Februar, Freitag

    Zeit Temperatur Niederschläge Wind Luftdruck Luftfeuchtigkeit
    00:00 +9°C° 0 mm 6 m/S 756 mmHg 80%
    01:00 +9°C° 0 mm 7 m/S 756 mmHg 79%
    02:00 +9°C° 0 mm 6 m/S 755 mmHg 79%
    03:00 +9°C° 0 mm 6 m/S 755 mmHg 78%
    04:00 +9°C° 0 mm 6 m/S 755 mmHg 77%
    05:00 +9°C° 0 mm 6 m/S 755 mmHg 78%
    06:00 +9°C° 0 mm 6 m/S 755 mmHg 78%
    07:00 +8°C° 0 mm 6 m/S 755 mmHg 78%
    08:00 +10°C° 0 mm 6 m/S 755 mmHg 72%
    09:00 +13°C° 0 mm 6 m/S 755 mmHg 66%
    10:00 +15°C° 0 mm 6 m/S 756 mmHg 61%
    11:00 +16°C° 0 mm 5 m/S 756 mmHg 57%
    12:00 +16°C° 0 mm 5 m/S 755 mmHg 53%
    13:00 +17°C° 0 mm 5 m/S 755 mmHg 50%
    14:00 +17°C° 0 mm 5 m/S 755 mmHg 52%
    15:00 +18°C° 0 mm 4 m/S 755 mmHg 55%
    16:00 +17°C° 0 mm 4 m/S 755 mmHg 57%
    17:00 +15°C° 0 mm 5 m/S 755 mmHg 62%
    18:00 +14°C° 0 mm 5 m/S 755 mmHg 66%
    19:00 +11°C° 0 mm 6 m/S 754 mmHg 70%
    20:00 +11°C° 0 mm 6 m/S 754 mmHg 72%
    21:00 +10°C° 0 mm 6 m/S 754 mmHg 74%
    22:00 +10°C° 0 mm 7 m/S 754 mmHg 76%
    23:00 +10°C° 0 mm 7 m/S 754 mmHg 76%

    übermorgen, 24 Februar, Samstag

    Zeit Temperatur Niederschläge Wind Luftdruck Luftfeuchtigkeit
    00:00 +9°C° 0 mm 6 m/S 754 mmHg 77%
    01:00 +9°C° 0 mm 6 m/S 753 mmHg 77%
    02:00 +9°C° 0,2 mm 6 m/S 753 mmHg 77%
    03:00 +9°C° 0,2 mm 6 m/S 753 mmHg 76%
    04:00 +9°C° 0,2 mm 6 m/S 753 mmHg 76%
    05:00 +9°C° 0,1 mm 6 m/S 754 mmHg 78%
    06:00 +9°C° 0,1 mm 6 m/S 754 mmHg 79%
    07:00 +9°C° 0,1 mm 6 m/S 754 mmHg 80%
    08:00 +10°C° 0,2 mm 5 m/S 754 mmHg 77%
    09:00 +12°C° 0,2 mm 5 m/S 755 mmHg 74%
    10:00 +13°C° 0,2 mm 4 m/S 755 mmHg 72%
    11:00 +13°C° 0,3 mm 4 m/S 755 mmHg 72%
    12:00 +13°C° 0,3 mm 4 m/S 755 mmHg 72%
    13:00 +13°C° 0,3 mm 4 m/S 755 mmHg 72%
    14:00 +13°C° 0,2 mm 4 m/S 755 mmHg 73%
    15:00 +13°C° 0,2 mm 4 m/S 755 mmHg 74%
    16:00 +13°C° 0,2 mm 4 m/S 755 mmHg 75%
    17:00 +12°C° 0,1 mm 4 m/S 755 mmHg 78%
    18:00 +12°C° 0,1 mm 4 m/S 755 mmHg 80%
    19:00 +11°C° 0,1 mm 4 m/S 755 mmHg 82%
    20:00 +11°C° 0,1 mm 3 m/S 756 mmHg 82%
    21:00 +11°C° 0,1 mm 3 m/S 756 mmHg 82%
    22:00 +11°C° 0,1 mm 3 m/S 756 mmHg 82%
    23:00 +10°C° 0,3 mm 3 m/S 756 mmHg 82%

    25 Februar, Sonntag

    Zeit Temperatur Niederschläge Wind Luftdruck Luftfeuchtigkeit
    00:00 +10°C° 0,3 mm 3 m/S 756 mmHg 81%
    01:00 +10°C° 0,3 mm 3 m/S 756 mmHg 81%
    02:00 +10°C° 0,3 mm 3 m/S 756 mmHg 80%
    03:00 +10°C° 0,3 mm 2 m/S 756 mmHg 80%
    04:00 +10°C° 0,3 mm 2 m/S 756 mmHg 79%
    05:00 +10°C° 0,1 mm 2 m/S 756 mmHg 79%
    06:00 +10°C° 0,1 mm 2 m/S 756 mmHg 79%
    07:00 +10°C° 0,1 mm 2 m/S 756 mmHg 78%
    08:00 +12°C° 0 mm 2 m/S 756 mmHg 73%
    09:00 +13°C° 0 mm 1 m/S 756 mmHg 67%
    10:00 +13°C° 0 mm 1 m/S 756 mmHg 62%
    11:00 +14°C° 0,1 mm 2 m/S 756 mmHg 64%
    12:00 +14°C° 0,1 mm 2 m/S 755 mmHg 66%
    13:00 +13°C° 0,1 mm 3 m/S 755 mmHg 67%
    14:00 +13°C° 0,2 mm 3 m/S 755 mmHg 69%
    15:00 +13°C° 0,2 mm 4 m/S 755 mmHg 71%
    16:00 +13°C° 0,2 mm 4 m/S 755 mmHg 73%
    17:00 +12°C° 0,2 mm 4 m/S 755 mmHg 77%
    18:00 +10°C° 0,2 mm 5 m/S 755 mmHg 82%
    19:00 +9°C° 0,2 mm 5 m/S 755 mmHg 86%
    20:00 +9°C° 0,6 mm 6 m/S 755 mmHg 87%
    21:00 +9°C° 0,6 mm 6 m/S 755 mmHg 87%
    22:00 +9°C° 0,6 mm 7 m/S 755 mmHg 88%
    23:00 +9°C° 0,6 mm 7 m/S 754 mmHg 87%

    26 Februar, Montag

    Zeit Temperatur Niederschläge Wind Luftdruck Luftfeuchtigkeit
    00:00 +9°C° 0,6 mm 7 m/S 754 mmHg 85%
    01:00 +9°C° 0,6 mm 7 m/S 753 mmHg 84%
    02:00 +9°C° 1 mm 7 m/S 752 mmHg 83%
    03:00 +9°C° 1 mm 7 m/S 751 mmHg 82%
    04:00 +8°C° 1 mm 7 m/S 750 mmHg 81%
    05:00 +8°C° 1,9 mm 6 m/S 750 mmHg 82%
    06:00 +8°C° 1,9 mm 6 m/S 749 mmHg 83%
    07:00 +8°C° 1,9 mm 5 m/S 748 mmHg 84%
    08:00 +8°C° 1,6 mm 6 m/S 748 mmHg 85%
    09:00 +8°C° 1,6 mm 6 m/S 748 mmHg 86%
    10:00 +8°C° 1,6 mm 6 m/S 748 mmHg 87%
    11:00 +10°C° 0,4 mm 6 m/S 748 mmHg 79%
    12:00 +11°C° 0,4 mm 6 m/S 748 mmHg 72%
    13:00 +14°C° 0,4 mm 6 m/S 748 mmHg 64%
    14:00 +14°C° 0,7 mm 6 m/S 748 mmHg 64%
    15:00 +14°C° 0,7 mm 6 m/S 747 mmHg 63%
    16:00 +14°C° 0,7 mm 6 m/S 747 mmHg 63%
    17:00 +12°C° 1,9 mm 7 m/S 747 mmHg 69%
    18:00 +11°C° 1,9 mm 7 m/S 748 mmHg 75%
    19:00 +9°C° 1,9 mm 8 m/S 748 mmHg 82%
    20:00 +8°C° 0,7 mm 9 m/S 748 mmHg 84%
    21:00 +8°C° 0,7 mm 9 m/S 748 mmHg 85%
    22:00 +8°C° 0,7 mm 10 m/S 748 mmHg 87%
    23:00 +7°C° 0,2 mm 9 m/S 749 mmHg 86%

    27 Februar, Dienstag

    Zeit Temperatur Niederschläge Wind Luftdruck Luftfeuchtigkeit
    00:00 +6°C° 0,2 mm 8 m/S 749 mmHg 85%
    01:00 +5°C° 0,2 mm 7 m/S 749 mmHg 83%
    02:00 +5°C° 0,2 mm 7 m/S 750 mmHg 84%
    03:00 +5°C° 0,2 mm 6 m/S 750 mmHg 84%
    04:00 +4°C° 0,2 mm 6 m/S 750 mmHg 84%
    05:00 +4°C° 0,2 mm 6 m/S 751 mmHg 84%
    06:00 +4°C° 0,2 mm 6 m/S 751 mmHg 83%
    07:00 +4°C° 0,2 mm 6 m/S 751 mmHg 83%
    08:00 +6°C° 0,1 mm 5 m/S 752 mmHg 80%
    09:00 +6°C° 0,1 mm 5 m/S 752 mmHg 76%
    10:00 +7°C° 0,1 mm 5 m/S 752 mmHg 73%
    11:00 +7°C° 0 mm 5 m/S 752 mmHg 70%
    12:00 +7°C° 0 mm 4 m/S 753 mmHg 66%
    13:00 +8°C° 0 mm 4 m/S 753 mmHg 63%
    14:00 +7°C° 0 mm 4 m/S 753 mmHg 64%
    15:00 +8°C° 0 mm 3 m/S 753 mmHg 64%
    16:00 +8°C° 0 mm 3 m/S 753 mmHg 65%
    17:00 +7°C° 0 mm 3 m/S 753 mmHg 69%
    18:00 +7°C° 0 mm 3 m/S 754 mmHg 73%
    19:00 +5°C° 0 mm 3 m/S 754 mmHg 77%
    20:00 +4°C° 0 mm 3 m/S 754 mmHg 77%
    21:00 +4°C° 0 mm 3 m/S 755 mmHg 77%
    22:00 +4°C° 0 mm 3 m/S 755 mmHg 76%
    23:00 +3°C° 0 mm 3 m/S 755 mmHg 76%
    Mehr zeigen